Location: Arena
(42.5007°N, 9.4650°E)
Time: 01:21:28
(UTC+00:00)

Iridium 2 - Pass Details

Date: 09 April 2020
Orbit: 502 x 518 km, 85.5° (Epoch: 29 May)

Event Time Altitude Azimuth Distance (km) Brightness Sun altitude
Exits shadow 19:33:30 37° 90° (E) 820 4.2 -17.4°
Maximum altitude 19:33:34 37° 88° (E) 819 4.2 -17.4°
Drops below altitude 10° 19:37:07 10° 21° (NNE) 1,756 6.5 -17.9°
Sets 19:39:21 0° 13° (NNE) 2,650 7.5 -18.3°
